Left ArrowRight Arrow

39.12711, -84.51439

Hourly Observations for June 19, 2024

Temp ( °F °C ) Dew Point ( °F °C ) Humidity (%) Winds ( mph kmh ) Pressure ( in mb ) Visibility ( mi km ) Precip ( " mm )
12:53 am 00:53 Clear 76 24.4 73 22.8 91 91 Calm 30.14 1021 7 11 0.00 0.00
1:53 am 01:53 Clear with Mist and Fog 75 23.9 72 22.2 90 90 Calm 30.15 1021 6 10 0.00 0.00
2:53 am 02:53 Clear with Mist and Fog 74 23.3 72 22.2 94 94 Calm 30.15 1021 5 8 0.00 0.00
3:53 am 03:53 Clear with Mist and Fog 74 23.3 73 22.8 97 97 Calm 30.14 1021 4 6 0.00 0.00
4:01 am 04:01 Clear with Mist and Fog 74 23.3 73 22.8 97 97 Calm 30.14 1021 1 2 0.00 0.00
4:09 am 04:09 Clear with Mist and Fog 74 23.3 72 22.2 94 94 Calm 30.14 1021 1 1 0.00 0.00
4:15 am 04:15 Clear with Mist and Fog 73 22.8 72 22.2 96 96 Calm 30.15 1021 2 3 0.00 0.00
4:22 am 04:22 Clear with Mist and Fog 74 23.3 72 22.2 94 94 Calm 30.15 1021 4 6 0.00 0.00
4:53 am 04:53 Clear with Mist and Fog 74 23.3 72 22.2 94 94 Calm 30.16 1021 4 6 0.00 0.00
5:12 am 05:12 Clear with Mist and Fog 73 22.8 72 22.2 96 96 Calm 30.16 1021 2 3 0.00 0.00
5:27 am 05:27 Clear with Mist and Fog 73 22.8 72 22.2 96 96 Calm 30.17 1022 3 5 0.00 0.00
5:53 am 05:53 Clear with Mist and Fog 74 23.3 72 22.2 94 94 Calm 30.18 1022 4 6 0.00 0.00
6:32 am 06:32 Sunny with Mist and Fog 73 22.8 72 22.2 96 96 Calm 30.19 1022 2 3 0.00 0.00
6:53 am 06:53 Sunny with Mist and Fog 74 23.3 72 22.2 94 94 Calm 30.20 1023 3 5 0.00 0.00
7:03 am 07:03 Sunny with Mist and Fog 74 23.3 72 22.2 94 94 Calm 30.20 1023 3 4 0.00 0.00
7:53 am 07:53 Sunny with Mist and Fog 76 24.4 73 22.8 91 91 Calm 30.22 1023 3 5 0.00 0.00
8:53 am 08:53 Sunny with Mist and Fog 78 25.6 74 23.3 87 87 Calm 30.24 1024 4 6 0.00 0.00
9:53 am 09:53 Hazy 80 26.7 73 22.8 79 79 S 5 7 30.25 1025 6 10 0.00 0.00
10:53 am 10:53 Hazy 83 28.3 74 23.3 74 74 S 5 7 30.25 1025 6 10 0.00 0.00
11:53 am 11:53 Hazy 85 29.4 75 23.9 72 72 VRB 5 7 30.24 1024 6 10 0.00 0.00
12:53 pm 12:53 Hazy 88 31.1 76 24.4 68 68 S 6 9 30.24 1024 6 10 0.00 0.00
1:53 pm 13:53 Hazy 87 30.6 76 24.4 70 70 SSE 5 7 30.24 1024 5 8 0.00 0.00
2:53 pm 14:53 Hazy 88 31.1 77 25 70 70 S 5 7 30.22 1023 5 8 0.00 0.00
3:53 pm 15:53 Hazy 89 31.7 75 23.9 63 63 SSW 8 13 30.22 1023 6 10 0.00 0.00
4:53 pm 16:53 Hazy 88 31.1 76 24.4 68 68 SSE 6 9 30.21 1023 6 10 0.00 0.00
5:53 pm 17:53 Sunny 89 31.7 76 24.4 65 65 S 8 13 30.21 1023 7 11 0.00 0.00
6:53 pm 18:53 Sunny 86 30 75 23.9 70 70 SSE 8 13 30.20 1023 7 11 0.00 0.00
7:53 pm 19:53 Sunny 86 30 73 22.8 65 65 S 5 7 30.20 1023 8 13 0.00 0.00
8:53 pm 20:53 Sunny 82 27.8 73 22.8 74 74 SSE 5 7 30.22 1023 8 13 0.00 0.00
9:53 pm 21:53 Clear 81 27.2 72 22.2 74 74 SSE 5 7 30.23 1024 9 14 0.00 0.00
10:53 pm 22:53 Clear 79 26.1 71 21.7 77 77 SSW 5 7 30.25 1024 9 14 0.00 0.00
11:53 pm 23:53 Clear 79 26.1 71 21.7 77 77 Calm 30.25 1024 8 13 0.00 0.00

Powered by Vaisala Xweather